KC0PSR Weather Reports


Display with metric or nautical units.
time (UTC)temp
F
wind
direction
speed
MPH
gust
MPH
rain 1hr
in
rain 24hr
in
rain mn
in
humidity
%
barometer
mb
20260504110552 49 260 1.0 4.0 0.00 0.00 0.00 66 999.6
20260504110119 50 257 0.0 4.0 0.00 0.00 0.00 65 999.7
20260504100547 57 84 3.0 10.0 0.00 0.00 0.00 56 998.8
20260504100103 57 149 3.0 14.0 0.00 0.00 0.00 55 998.7
20260504090121 60 252 13.0 26.0 0.00 0.00 0.00 46 996.9
20260504081556 60 220 17.0 26.0 0.00 0.00 0.00 43 997.1
20260504081048 60 235 16.0 27.0 0.00 0.00 0.00 43 997.2
20260504080551 60 223 14.0 27.0 0.00 0.00 0.00 43 997.2
20260504050548 52 205 4.0 8.0 0.00 0.00 0.00 52 1001.0
20260504045550 52 231 4.0 8.0 0.00 0.00 0.00 53 1001.3
20260504045049 52 219 5.0 8.0 0.00 0.00 0.00 52 1001.3
20260504044600 52 196 4.0 9.0 0.00 0.00 0.00 51 1001.3
20260504044047 52 215 5.0 9.0 0.00 0.00 0.00 52 1001.4
20260504043547 51 220 5.0 8.0 0.00 0.00 0.00 52 1001.6
20260504043054 51 200 3.0 7.0 0.00 0.00 0.00 53 1001.6
20260504042548 51 196 3.0 8.0 0.00 0.00 0.00 53 1001.7
20260504042049 50 196 3.0 8.0 0.00 0.00 0.00 53 1001.7
20260504041553 51 198 4.0 8.0 0.00 0.00 0.00 53 1002.0
20260504041048 51 186 5.0 8.0 0.00 0.00 0.00 53 1002.2
20260504040548 50 219 5.0 8.0 0.00 0.00 0.00 53 1002.3
20260504040052 50 213 4.0 7.0 0.00 0.00 0.00 53 1002.4
20260504035548 51 200 3.0 7.0 0.00 0.00 0.00 53 1002.5
20260504035048 51 196 2.0 8.0 0.00 0.00 0.00 52 1002.6
20260504034559 52 215 3.0 8.0 0.00 0.00 0.00 51 1002.7
20260504034047 52 212 4.0 8.0 0.00 0.00 0.00 51 1002.8
20260504033548 53 218 3.0 8.0 0.00 0.00 0.00 51 1002.8
20260504033103 53 198 3.0 8.0 0.00 0.00 0.00 50 1002.9
20260504032551 53 209 4.0 7.0 0.00 0.00 0.00 50 1003.1
20260504032048 53 218 4.0 9.0 0.00 0.00 0.00 50 1003.2
20260504031558 53 204 5.0 9.0 0.00 0.00 0.00 50 1003.3
20260504031047 53 188 4.0 7.0 0.00 0.00 0.00 50 1003.4
20260504030551 53 212 3.0 7.0 0.00 0.00 0.00 50 1003.5
20260504030059 53 194 3.0 7.0 0.00 0.00 0.00 51 1003.5
20260504025548 53 221 3.0 7.0 0.00 0.00 0.00 50 1003.7
20260504025048 54 202 2.0 7.0 0.00 0.00 0.00 49 1003.8
20260504024605 54 227 4.0 8.0 0.00 0.00 0.00 48 1003.8
20260504024048 55 211 4.0 9.0 0.00 0.00 0.00 47 1003.9
20260504023548 55 234 5.0 9.0 0.00 0.00 0.00 46 1003.9
20260504023059 56 228 5.0 8.0 0.00 0.00 0.00 45 1004.0
20260504022548 56 232 4.0 8.0 0.00 0.00 0.00 45 1004.0
20260504022052 56 225 4.0 7.0 0.00 0.00 0.00 44 1004.0
20260504021557 57 223 3.0 6.0 0.00 0.00 0.00 44 1004.2
20260504021047 58 225 4.0 7.0 0.00 0.00 0.00 43 1004.1
20260504020548 58 232 4.0 7.0 0.00 0.00 0.00 41 1004.0
20260504020054 59 238 2.0 7.0 0.00 0.00 0.00 40 1004.0
20260504015548 60 227 2.0 5.0 0.00 0.00 0.00 39 1004.2
20260504015051 60 223 1.0 4.0 0.00 0.00 0.00 38 1004.1
20260504014555 61 230 1.0 3.0 0.00 0.00 0.00 37 1004.0
20260504014047 62 230 0.0 3.0 0.00 0.00 0.00 37 1004.1
20260504013547 62 230 1.0 2.0 0.00 0.00 0.00 37 1004.2
20260504013057 63 230 1.0 3.0 0.00 0.00 0.00 36 1004.4
20260504012551 63 263 0.0 3.0 0.00 0.00 0.00 36 1004.4
20260504012048 64 263 1.0 4.0 0.00 0.00 0.00 34 1004.4
20260504011552 65 263 2.0 6.0 0.00 0.00 0.00 33 1004.4
20260504011049 65 250 3.0 7.0 0.00 0.00 0.00 34 1004.6
20260504010547 66 259 3.0 9.0 0.00 0.00 0.00 33 1004.6
20260504010058 66 268 3.0 9.0 0.00 0.00 0.00 33 1004.6
20260504005548 67 262 3.0 9.0 0.00 0.00 0.00 32 1004.7
20260504005048 67 262 4.0 10.0 0.00 0.00 0.00 31 1004.8
20260504004553 68 269 5.0 12.0 0.00 0.00 0.00 30 1004.7
20260504004047 68 252 7.0 12.0 0.00 0.00 0.00 29 1004.9
20260504003552 68 263 7.0 11.0 0.00 0.00 0.00 29 1005.0
20260504003052 69 270 6.0 11.0 0.00 0.00 0.00 29 1005.0
20260504002547 69 250 7.0 13.0 0.00 0.00 0.00 29 1005.0
20260504002048 69 284 8.0 13.0 0.00 0.00 0.00 29 1005.0
20260504001610 69 256 7.0 13.0 0.00 0.00 0.00 28 1005.0
20260504001048 70 269 7.0 14.0 0.00 0.00 0.00 28 1005.1
20260504000550 70 259 7.0 15.0 0.00 0.00 0.00 27 1005.1
20260504000052 70 267 8.0 15.0 0.00 0.00 0.00 27 1005.1
20260503235549 70 275 9.0 15.0 0.00 0.00 0.00 26 1005.1
20260503235050 70 273 9.0 17.0 0.00 0.00 0.00 26 1005.3
20260503234550 70 267 8.0 17.0 0.00 0.00 0.00 26 1005.3
20260503234047 71 251 7.0 15.0 0.00 0.00 0.00 26 1005.3
20260503233547 71 263 7.0 12.0 0.00 0.00 0.00 25 1005.3
20260503233053 71 279 5.0 12.0 0.00 0.00 0.00 25 1005.5
20260503232551 71 302 5.0 11.0 0.00 0.00 0.00 26 1005.5
20260503232047 71 242 6.0 10.0 0.00 0.00 0.00 25 1005.6
20260503231550 71 230 6.0 10.0 0.00 0.00 0.00 27 1005.6
20260503231047 71 247 6.0 15.0 0.00 0.00 0.00 27 1005.6
20260503230547 71 257 3.0 15.0 0.00 0.00 0.00 26 1005.7
20260503230054 71 254 7.0 15.0 0.00 0.00 0.00 25 1005.8
20260503225547 71 266 8.0 15.0 0.00 0.00 0.00 24 1005.9
20260503225048 71 256 7.0 15.0 0.00 0.00 0.00 26 1005.9
20260503224554 71 227 5.0 17.0 0.00 0.00 0.00 26 1005.9
20260503224048 72 242 8.0 17.0 0.00 0.00 0.00 24 1006.1
20260503223549 72 261 6.0 14.0 0.00 0.00 0.00 26 1006.1
20260503223053 72 237 8.0 14.0 0.00 0.00 0.00 27 1006.1
20260503222551 72 313 4.0 15.0 0.00 0.00 0.00 26 1006.1
20260503222048 71 261 8.0 19.0 0.00 0.00 0.00 27 1006.3
20260503221554 72 257 11.0 19.0 0.00 0.00 0.00 24 1006.2
20260503221050 72 344 5.0 13.0 0.00 0.00 0.00 25 1006.2
20260503220547 72 238 7.0 13.0 0.00 0.00 0.00 26 1006.4
20260503220113 72 338 4.0 12.0 0.00 0.00 0.00 29 1006.5
20260503215546 72 242 6.0 13.0 0.00 0.00 0.00 27 1006.6
20260503215047 72 19 3.0 13.0 0.00 0.00 0.00 29 1006.6
20260503214550 72 269 6.0 14.0 0.00 0.00 0.00 29 1006.6
20260503214049 72 302 5.0 14.0 0.00 0.00 0.00 29 1006.7
20260503213547 72 234 2.0 13.0 0.00 0.00 0.00 30 1006.7
20260503213053 71 78 3.0 13.0 0.00 0.00 0.00 28 1006.8
20260503212548 71 279 5.0 12.0 0.00 0.00 0.00 32 1006.9
20260503212047 71 258 5.0 17.0 0.00 0.00 0.00 28 1007.0
20260503211604 71 242 5.0 17.0 0.00 0.00 0.00 28 1007.0
20260503211049 71 248 9.0 17.0 0.00 0.00 0.00 30 1007.0
20260503210547 71 273 10.0 17.0 0.00 0.00 0.00 31 1007.0
20260503210056 71 355 8.0 15.0 0.00 0.00 0.00 31 1007.2
20260503205547 71 267 9.0 15.0 0.00 0.00 0.00 31 1007.3
20260503205048 71 247 7.0 15.0 0.00 0.00 0.00 31 1007.3
20260503204556 71 234 3.0 13.0 0.00 0.00 0.00 30 1007.6
20260503204046 71 236 5.0 11.0 0.00 0.00 0.00 31 1007.6
20260503203547 71 155 3.0 10.0 0.00 0.00 0.00 32 1007.7
20260503203059 71 261 3.0 11.0 0.00 0.00 0.00 29 1007.7
20260503202547 71 284 4.0 13.0 0.00 0.00 0.00 28 1007.9
20260503202047 71 206 6.0 13.0 0.00 0.00 0.00 29 1008.1
20260503201556 71 260 7.0 11.0 0.00 0.00 0.00 31 1008.3
20260503201053 71 240 4.0 14.0 0.00 0.00 0.00 32 1008.3
20260503200549 71 26 4.0 14.0 0.00 0.00 0.00 31 1008.4
20260503200053 71 261 5.0 14.0 0.00 0.00 0.00 31 1008.3
20260503195547 70 15 3.0 11.0 0.00 0.00 0.00 33 1008.5
20260503195048 70 252 3.0 14.0 0.00 0.00 0.00 33 1008.7
20260503194557 70 279 8.0 14.0 0.00 0.00 0.00 32 1008.6
20260503194047 70 25 2.0 8.0 0.00 0.00 0.00 34 1008.7
20260503193547 70 352 2.0 10.0 0.00 0.00 0.00 34 1008.7
20260503193113 70 296 3.0 10.0 0.00 0.00 0.00 33 1008.8
20260503192546 70 333 3.0 13.0 0.00 0.00 0.00 32 1008.9
20260503192048 69 271 2.0 13.0 0.00 0.00 0.00 35 1008.8
20260503191557 70 268 4.0 16.0 0.00 0.00 0.00 33 1009.1
20260503191047 69 84 3.0 16.0 0.00 0.00 0.00 33 1009.2
20260503190546 69 294 4.0 11.0 0.00 0.00 0.00 34 1009.3
20260503190052 69 251 3.0 10.0 0.00 0.00 0.00 34 1009.3
20260503185545 69 271 2.0 9.0 0.00 0.00 0.00 37 1009.4
20260503185049 68 223 3.0 10.0 0.00 0.00 0.00 39 1009.5
20260503184552 68 329 3.0 19.0 0.00 0.00 0.00 41 1009.6
20260503184048 67 94 4.0 19.0 0.00 0.00 0.00 39 1009.6
20260503183548 67 351 5.0 14.0 0.00 0.00 0.00 36 1009.8
20260503183104 67 76 7.0 14.0 0.00 0.00 0.00 36 1009.9
20260503182547 67 28 3.0 14.0 0.00 0.00 0.00 35 1010.0
20260503182047 67 352 4.0 14.0 0.00 0.00 0.00 33 1010.1
20260503181622 67 61 4.0 9.0 0.00 0.00 0.00 34 1010.0
20260503181047 67 248 2.0 10.0 0.00 0.00 0.00 34 1010.3
20260503180552 67 313 4.0 10.0 0.00 0.00 0.00 35 1010.4
20260503180124 67 258 3.0 10.0 0.00 0.00 0.00 40 1010.4
20260503175554 67 252 3.0 10.0 0.00 0.00 0.00 37 1010.4
20260503175048 66 331 3.0 10.0 0.00 0.00 0.00 38 1010.4
20260503174557 66 32 2.0 9.0 0.00 0.00 0.00 39 1010.4
20260503174048 66 296 3.0 10.0 0.00 0.00 0.00 41 1010.6
20260503173548 66 259 4.0 10.0 0.00 0.00 0.00 39 1010.6
20260503173058 66 333 2.0 10.0 0.00 0.00 0.00 38 1010.7
20260503172550 66 340 1.0 10.0 0.00 0.00 0.00 39 1010.7
20260503172048 66 327 3.0 9.0 0.00 0.00 0.00 42 1010.7
20260503171552 66 79 2.0 10.0 0.00 0.00 0.00 42 1010.9
20260503171049 65 262 4.0 10.0 0.00 0.00 0.00 41 1010.9
20260503170548 65 283 3.0 9.0 0.00 0.00 0.00 39 1011.0
20260503150550 60 35 2.0 8.0 0.00 0.00 0.00 49 1011.3
20260503150104 60 168 2.0 8.0 0.00 0.00 0.00 51 1011.3
20260503131047 50 299 2.0 9.0 0.00 0.00 0.00 69 1011.0
20260503130548 50 318 1.0 11.0 0.00 0.00 0.00 70 1011.0